Location: Baia Mare
(47.6567°N, 23.5850°E)
Time: 17:49:11
(UTC+02:00)

ISS - Pass Details

Date: 06 February 2018
Orbit: 403 x 407 km, 51.6° (Epoch: 21 February)

Event Time Altitude Azimuth Distance (km) Brightness Sun altitude
Rises 18:20:53 0° 286° (WNW) 2,320 1.2 -8.3°
Reaches altitude 10° 18:23:02 10° 294° (WNW) 1,460 -0.1 -8.6°
Maximum altitude 18:26:10 41° 6° (N) 604 -3.1 -9.1°
Enters shadow 18:28:42 14° 75° (ENE) 1,237 -2.1 -9.6°
